Погода Сасово

Погода Сасово : погода сейчас, прогноз погоды и архив. Всё, что Вы хотите узнать о погоде Сасово!

Хотите узнать прогноз погоды Сасово? Тогда Вам сюда: Погода Сасово

Поиск расширенной информации на нашем сайте:

Другие новости

Новости СМИ2

Главная страница сайта

Новости сайта

03.07.2017

Напоминаем, что на нашем специализированном сайте Метеоцентр.Азия вы можете получить высокодетализированные автоматические прогнозы погоды по пунктам России, СНГ и мира в авиационном формате (включающие направление и скорость ветра, видимость, явления погоды, количество и форму облачности, нижнюю и верхнюю границу облачности).


Погода Сасово - сегодня

Время (UTC), дата Ветер
(°,м/с) 
Видим.   Явления Облачность Т
(°С)
Тd
(°С)
f(%) Тe
(°С)
Pmin
(гПа)
dP
(гПа)
Po
(мм)
O2
(г/м3)
Тmin Tmax R s Состояние
почвы
12 20.10.17 330 (СЗ) 20000 м    10/10 700 м кучево-дожд. 
[Cb cap]
+6.6 -0.9 59 +6  1019.7  -0.2  754  297           
15 20.10.17 330 (СЗ) 10 км    10/5 1200 м средняя 
[Sc|Ac As]
+4.9 -0.4 69 +5  1020.3  0.5  755  299    +6.8       
18 20.10.17 280 (З) 10 км    10/3 1000 м средняя 
[Sc|Ac und]
+4.2 -0.6 71 +5  1020.5  0.1  755  300           
21 20.10.17 290 (З) 10 км  в посл. час ливневой дождь  10/6 900 м кучево-дожд., средняя 
[Cb cap|Ac und]
+2.5 -0.2 82 +2  1020.2  -0.4  754  301           
00 21.10.17 тихо ()   10 км  {ливн. осадки}  4/3 1000 м кучево-дожд., средняя 
[Cb cap|Ac trans]
-1.1 -1.3 99 -1  1020.1  -0.3  754  305           
03 21.10.17 180 (Ю) 10 км  слаб. ливневой снег  10/8 1200 м кучево-дожд., средняя 
[Cb cap|Ac und]
-0.6 -0.6 100 1019.4  -0.6  754  304  -1.6    0.0     
06 21.10.17 180 (Ю) 20000 м  в посл. час ливневой снег  10/6 1200 м средняя 
[Sc|Ac und]
+1.2 +1.1 99 +2  1019.2  0.1  754  302           
09 21.10.17 290 (З) 20000 м    10/8 500 м кучево-дожд., средняя 
[Cb cap|Ac trans]
+3.9 +0.8 80 +5  1018.4  -0.7  753  299           
12 21.10.17 160 (Ю) 20000 м  в посл. час ливневой дождь  8/5 600 м кучево-дожд., средняя 
[Cb cap|Ac trans]
+2.3 +0.2 86 +3  1017.1  -1.4  752  300           
15 21.10.17 тихо ()   10 км  {ливн. осадки}  10/8 1380 м кучево-дожд., средняя 
[Cb cap|Ac und]
+0.5 +0.4 99 +1  1017.5  0.3  752  302    +5.8     
18 21.10.17 200 (Ю) 10 км  дымка{ливн. осадки}  10/5 480 м кучево-дожд., средняя 
[Cb cap|Ac As]
+0.7 +0.7 100 +1  1017.3  -0.2  752  302           
21 21.10.17 320 (СЗ) 5000 м  дымка  10/10 400 м кучево-дожд. 
[Cb cap]
+1.1 +1.1 100 +2  1017  -0.3  752  302           
00 22.10.17 010 (С) 0500 м  туман  10/10 210 м 
[St]
+0.9 +0.9 100 1016.5  -0.5  752  302           
03 22.10.17 040 (СВ) 10 км  слаб. ливневой снег{туман}  10/9 1200 м кучево-дожд., средняя 
[Cb cap|Ac As]
-1 -1 100 -3  1016.8  0.2  752  304  -1    0.0     
06 22.10.17 350 (С) 6000 м  дымка{ливн. осадки, туман}  10/9 210 м средняя 
[St|Ac und]
-1.2 -1.2 100 -3  1017.6  0.8  752  305  -1.7         
09 22.10.17 010 (С) 20000 м    10/10 400 м 
[Sc]
+0 -1.4 90 -2  1017.8  0.2  752  303           
12 22.10.17 350 (С) 20000 м    10/10 750 м 
[Sc]
+0 -4.5 72 -1  1017.8  752  304           
15 22.10.17 310 (СЗ) 10 км    10/10 800 м 
[Sc]
-0.5 -4.8 73 -1  1018.3  0.5  753  304    +0.8  0.0     
18 22.10.17 210 (ЮЗ) 10 км    3/3 1000 м 
[Sc]
-3.2 -4.6 90 -3  1018.6  0.1  753  307           
21 22.10.17 190 (Ю) 10 км    3/3 1000 м 
[Sc]
-4.8 -5.2 97 -4  1018.6  753  309           
00 23.10.17 180 (Ю) 10 км    1/1 1000 м 
[Sc]
-4.9 -5.4 96 -6  1018.4  -0.2  753  309           
03 23.10.17 190 (Ю) 10 км    6/0 средняя 
[Ac trans]
-4.5 -5 96 -4  1018.5  0.1  753  309  -5.2         
06 23.10.17 200 (Ю) 20000 м    10/1 1000 м средняя 
[Sc|Ac und]
-2.7 -4.1 90 -4  1018.6  0.1  753  307           
09 23.10.17 240 (ЮЗ) 20000 м  слаб. ливневой снег  10/10 600 м кучево-дожд. 
[Cb cap]
+0.2 -3.5 76 +1  1018.8  0.4  753  304           
12 23.10.17 300 (СЗ) 20000 м  в посл. час ливневой снег  10/10 300 м кучево-дожд. 
[Cb cap]
+0.2 -2.2 84 -1  1020.2  1.3  754  304           
Время (UTC), дата Ветер
(°,м/с) 
Видим.   Явления Облачность Т
(°С)
Тd
(°С)
f(%) Тe
(°С)
Pmin
(гПа)
dP
(гПа)
Po
(мм)
O2
(г/м3)
Тmin Tmax R s Состояние
почвы

Для получения пояснительной информации подведите курсор к названию столбца.

ПОГОДА Сасово - архив

Всё, что Вы хотите узнать о погоде Сасово - удобно и подробно!

Выберите нужную дату (начиная с 1 января 2015* года) и нажмите кнопку "Найти".
Будут отображены архивные сводки погоды по пункту Сасово, начиная с указанной даты.


Отображать данные в формате CSV (для использования в таблицах Excel)


Внимание! Наш архив погоды предназначен исключительно для личного некоммерческого использования в познавательных целях. Если Вам необходимы официальные справки о состоянии погоды (для производственных, юридических, коммерческих и т.п. целей), обращайтесь в органы Росгидромета.

*Примечание: данная дата относится к архиву по метеостанциям СССР (Россия, СНГ, Балтия).
Архив по метеостанциям Зарубежной Европы и Азии (кроме Китая) хранится 10 дней, по другим регионам земного шара (Китай, Африка, Америка, Австралия, Океания) - 1 день.

Сасово - район местоположения метеостанции


Название, широта, долгота, высота метеостанции:
Сасово 54.3°ш. 41.1°д. 115 м над ур. моря [Российская Федерация]

Дополнительная информация

В oтличие oт бoльшинства пoгoдных сайтoв мы публикуем пoдрoбную метеoинфoрмацию в детальнoм прoфессиoнальнoм фoрмате.

Характеристики температуры и влажнoсти вoздуха измеряются на высoте 2 м в тени вдали oт зданий и деревьев.
Скoрoсть ветра измеряется на высoте 10 м (на урoвне рoста челoвека скoрoсть ветра ниже в 1.5-2 раза). Если метеoстанция нахoдится в гoрoде или в лесу, тo скoрoсть ветра занижена на 2-4 м/с пo сравнению с oткрытым местoм. Скoрoсть ветра над акватoриями крупных рек и oзёр, а также на вершинах хoлмoв на 2-5 м/с выше, чем в oбычных услoвиях.
Атмoсфернoе давление в разных тoчках местнoсти мoжет значительнo oтличаться oт давления на метеoстанции, в зависимoсти oт услoвий рельефа (при пoдъёме на 10 м давление пoнижается примернo на 1 мм рт.ст.).